Terminal Aerodrome Forecast
Issued by NWS Dallas/Fort Worth, TX

Home | Current Version | Previous Version | Text Only | Print | Product List | Glossary On
Versions: 1 2 3 4 5 6 7 8 9 10 11 12 13 14 15 16 17 18 19 20 21 22 23 24 25
000
FTUS44 KFWD 301100
TAFDFW
TAF
KDFW 301130Z 3012/3118 03010KT P6SM OVC150
     FM301700 07007KT P6SM OVC150
     FM311100 12011KT P6SM OVC070
     FM311600 13010KT P6SM VCSH OVC060=

USA.gov is the U.S. government's official web portal to all federal, state and local government web resources and services.